Preview of NWS' New Version of Forecast
This preview is not operational and should not be used for support decisions.

Regional Weather Roundup (RWR)

Issued by National Weather Service (NWS)

                            
000
ASUS43 KBIS 180202
RWRND 

NORTH DAKOTA REGIONAL WEATHER ROUNDUP
NATIONAL WEATHER SERVICE BISMARCK ND
900 PM CDT MON JUN 17 2019

NOTE: "FAIR" INDICATES FEW OR NO CLOUDS BELOW 12,000 FEET WITH NO
SIGNIFICANT WEATHER AND/OR OBSTRUCTIONS TO VISIBILITY.


NDZ001>003-009>011-017-180300-
NORTHWEST NORTH DAKOTA
  
CITY           SKY/WX    TMP DP  RH WIND       PRES   REMARKS
WILLISTON      PTCLDY    67  44  43 E7        30.06R                  
MINOT          PTCLDY    63  46  54 N5        30.05R                  
MINOT AFB      MOCLDY    63  47  55 NE6       30.04R                  
$$
 
NDZ018>021-031>035-040>046-180300-
SOUTHWEST NORTH DAKOTA
  
CITY           SKY/WX    TMP DP  RH WIND       PRES   REMARKS
BISMARCK       PTCLDY    67  46  47 N6        30.05R                  
DICKINSON      CLEAR     62  44  51 NE7       30.05R                  
GARRISON         N/A     62  46  55 NE3       30.05S                  
HETTINGER ARPT CLOUDY    63  48  58 E10       30.06R                  
$$
 
NDZ004>008-012>016-024-026-027-054-180300-
NORTHEAST NORTH DAKOTA
  
CITY           SKY/WX    TMP DP  RH WIND       PRES   REMARKS
GRAND FORKS    CLOUDY    59  55  87 NW5       29.99S                  
DEVILS LAKE    CLOUDY    60  53  77 NW7       30.04S                  
$$
 
NDZ022-023-025-028>030-036>039-047>053-180300-
SOUTHEAST NORTH DAKOTA
  
CITY           SKY/WX    TMP DP  RH WIND       PRES   REMARKS
FARGO          CLOUDY    62  54  74 NW8       30.00R                  
JAMESTOWN      MOCLDY    60  52  74 NE9       30.03R                  
$$